Regional Weather Roundup
Issued by NWS

Home | Current Version | Previous Version | Graphics & Text | Print | Product List | Glossary On
Versions: 1 2 3 4 5 6 7 8 9 10 11 12 13 14 15 16 17 18 19 20 21 22 23 24 25 26 27 28 29 30 31 32 33 34 35 36 37 38 39 40 41 42 43 44 45 46 47 48 49 50
000
ASUS43 KMKX 290920
RWRWI

WISCONSIN REGIONAL WEATHER ROUNDUP
NATIONAL WEATHER SERVICE MILWAUKEE/SULLIVAN WI
400 AM CDT SUN MAR 29 2015

NOTE: "FAIR" INDICATES FEW OR NO CLOUDS BELOW 12,000 FEET WITH NO
SIGNIFICANT WEATHER AND/OR OBSTRUCTIONS TO VISIBILITY.

WIZ001-002-006>008-014>016-023>028-291000-
NORTHWEST WISCONSIN

CITY           SKY/WX    TMP DP  RH WIND       PRES   REMARKS
SUPERIOR ARPT  MOCLDY    36  19  50 S9G16     29.74F WCI  29
ASHLAND        CLOUDY    35  15  44 SW14      29.83R WCI  26
HAYWARD        CLOUDY    34  15  46 SW13G24   29.84S WCI  25
SIREN          MOCLDY    35  19  51 S13G22    29.79F WCI  26
CUMBERLAND     MOCLDY    32  18  55 S13       29.82F WCI  22
RICE LAKE      MOCLDY    34  17  50 S17G24    29.85F WCI  23
CHETEK         MOCLDY    33  17  51 S9G17     29.86F WCI  25
LADYSMITH      MOCLDY    32  17  54 S12G17    29.87F WCI  23
EAU CLAIRE     MOCLDY    33  15  47 S12       29.89F WCI  24
MENOMONIE      CLOUDY    35  18  51 S14       29.87F WCI  25
NEW RICHMOND   MOCLDY    35  20  55 S14G24    29.82F WCI  26
OSCEOLA        MOCLDY    36  22  56 S16G22    29.81F WCI  26
$$

WIZ003>005-009-010-017-018-291000-
NORTH CENTRAL WISCONSIN

CITY           SKY/WX    TMP DP  RH WIND       PRES   REMARKS
MANITOWISH WTR CLOUDY    31  15  50 S10G20    29.82F WCI  22
ARBOR VITAE    CLOUDY    32  16  52 S14G21    29.84F WCI  22
WOODRUFF       CLOUDY    32  16  52 S14G21    29.84F WCI  22
RHINELANDER    CLOUDY    30  13  49 S14       29.89F WCI  19
EAGLE RIVER    CLOUDY    31  11  44 S12G17    29.86F WCI  21
LAND O LAKES   CLOUDY    31  14  48 S8G21     29.85F WCI  24
PHILLIPS       MOCLDY    31  15  50 S16G22    29.82F WCI  20
TOMAHAWK       MOCLDY    30  15  53 S7        29.89F WCI  23
MEDFORD        MOCLDY    30  16  57 S14       29.90F WCI  19
MERRILL        MOCLDY    31  14  49 S12G21    29.92F WCI  22
$$

WIZ029-030-035-036-043>047-291000-
CENTRAL WISCONSIN

CITY           SKY/WX    TMP DP  RH WIND       PRES   REMARKS
WAUSAU         CLOUDY    31  14  49 S13       29.93F WCI  21
MOSINEE        CLOUDY    32  16  51 S15       29.94F WCI  22
MARSHFIELD     CLOUDY    32  15  49 S13       29.93F WCI  22
STEVENS POINT  CLOUDY    29  13  51 S10G16    29.98F WCI  20
WAUPACA        CLOUDY    33  15  47 S10       30.02F WCI  25
WAUTOMA        CLOUDY    32  14  47 S10       30.03F WCI  24
WISC RAPIDS    CLOUDY    32  12  43 S12G20    29.99F WCI  23
CAMP DOUGLAS   CLOUDY    33  15  46 S10       29.98F WCI  25
$$

WIZ011>013-019>022-031-037>040-048>050-291000-
NORTHEAST WISCONSIN

CITY           SKY/WX    TMP DP  RH WIND       PRES   REMARKS
ANTIGO         CLOUDY    29  16  57 S14       29.94F WCI  18
SHAWANO        CLOUDY    33  17  51 CALM      30.01F
OCONTO         MOCLDY    30  18  60 S8        30.03F WCI  22
STURGEON BAY   MOCLDY    28  16  59 S13       30.05F WCI  18
GREEN BAY      MOCLDY    29  20  69 S10       30.04F WCI  20
MANITOWOC      MOCLDY    29  17  61 S10       30.08F WCI  20
APPLETON       MOCLDY    30  16  55 S13       30.03F WCI  20
CLINTONVILLE   CLOUDY    32  18  55 S13       30.01F WCI  22
OSHKOSH        MOCLDY    29  17  61 S16       30.04F WCI  17
$$

WIZ032>034-041-042-053>061-291000-
SOUTHWEST WISCONSIN

CITY           SKY/WX    TMP DP  RH WIND       PRES   REMARKS
LA CROSSE      MOCLDY    36  18  48 S14       29.96F WCI  27
SPARTA         MOCLDY    33  14  46 S15       29.97F WCI  23
VIROQUA        MOCLDY    31  18  57 S13G20    29.96F WCI  21
BOSCOBEL       FAIR      34  17  50 S14       30.03F WCI  25
PRAIRIE DU CHI CLEAR     34  17  49 SE6       30.01F WCI  28
PLATTEVILLE    CLEAR     31  20  64 S17G23    30.04F WCI  20
$$

WIZ056-057-062-063-064-067-068-291000-
SOUTH CENTRAL WISCONSIN

CITY           SKY/WX    TMP DP  RH WIND       PRES   REMARKS
REEDSBURG      MOCLDY    32  16  52 S14       30.02F WCI  22
BARABOO/DELLS  MOCLDY    32  15  49 S13G18    30.02F WCI  22
LONE ROCK      MOCLDY    32  17  54 S10       30.05F WCI  24
MINERAL POINT  PTCLDY    32  19  59 S12G17    30.03F WCI  23
MADISON        PTCLDY    32  16  51 S13G22    30.07F WCI  22
MIDDLETON      PTCLDY    32  17  54 S15       30.06F WCI  22
WATERTOWN      MOCLDY    29  18  63 S10       30.08F WCI  19
MONROE         FAIR      30  21  69 S17       30.07S WCI  18
JANESVILLE     PTCLDY    32  18  55 S14       30.09F WCI  22
$$

WIZ051-052-058>065-066-070>072-291000-
SOUTHEAST WISCONSIN

CITY           SKY/WX    TMP DP  RH WIND       PRES   REMARKS
MILWAUKEE      MOCLDY    28  13  53 S10       30.13F WCI  19
WAUKESHA       MOCLDY    27  14  59 S8        30.11F WCI  18
MILWAUKEE/TIMM MOCLDY    30  12  47 S10       30.12F WCI  21
RACINE         PTCLDY    29  13  51 S9        30.15F WCI  20
BURLINGTON     PTCLDY    27  15  59 S9        30.12F WCI  18
KENOSHA        PTCLDY    29  14  53 S12       30.14F WCI  19
FOND DU LAC    MOCLDY    31  15  52 S16       30.05F WCI  20
SHEBOYGAN      MOCLDY    28  15  58 S12       30.09F WCI  18
WEST BEND      MOCLDY    30  12  47 S12G17    30.08F WCI  21
JUNEAU         CLOUDY    29  16  59 S15       30.07F WCI  18
$$

LSZ147-162-291000-
LAKE SUPERIOR

STATION/POSITION TIME  TEMP    WIND        PRES    WAVE
                       AIR SEA DIR/SP/G            HT/PER
                 (UTC) (F)     (DEG/KT/KT) (MB)    (FT/S)
DEVILS ISLAND    0900   36     190/  9/ 12 1008.9F
PORT WING        0900   37     180/ 11/ 21 1008.1F
SAXON HARBOR     0900   38     200/  9/ 22 1009.1S
$$

LMZ867-665-643>646-291000-
LAKE MICHIGAN

STATION/POSITION TIME  TEMP    WIND        PRES    WAVE
                       AIR SEA DIR/SP/G            HT/PER
                 (UTC) (F)     (DEG/KT/KT) (MB)    (FT/S)
NORTHPORT PIER   0800   30     180/  6/ 19 1017.9F
SISTER BAY       0817   30     190/ 16/ 20   N/A
SHEBOYGAN LAKESH 0900   32     200/ 17/ 20 1020.1F
PORT WASHINGTON  0800   30     210/  7/ 12 1021.3F
MILWAUKEE LAKESH 0900   31     200/ 13/ 15   N/A
KENOSHA   LAKESH 0900   31     190/ 10/ 16 1021.0F
$$

TC  - TEMPERATURE IN CELSIUS
VSB - VISIBILITY IN STATUTE MILES
WCI - WIND CHILL INDEX
HX  - HEAT INDEX



USA.gov is the U.S. government's official web portal to all federal, state and local government web resources and services.